Weather History for Steamboat Springs, CO

Change the Weather History Date:

Thursday, November 21, 2013

  Actual Average Record
Temperature  
Mean Temperature 24 °F -  
Max Temperature 33 °F 38 °F 58 °F (1943)
Min Temperature 14 °F 9 °F -16 °F (1957)
Degree Days  
Heating Degree Days 42    
Moisture  
Dew Point 24 °F    
Average Humidity 94    
Maximum Humidity 100    
Minimum Humidity 79    
Precipitation  
Precipitation 0.00 in - - ()
Sea Level Pressure  
Sea Level Pressure 30.09 in    
Wind  
Wind Speed 2 mph (SW)    
Max Wind Speed 12 mph    
Max Gust Speed 20 mph    
Visibility 4 miles    
Events      
Averages and records for this station are not official NWS values.
T = Trace of Precipitation, MM = Missing Value Source: NWS Daily Summary

Daily Weather History Graph

Daily Weather History Graph

Search for Another Location

Airport:

Trip Planner

Search our weather history database for the weather conditions in past years. The results will help you decide how hot, cold, wet, or windy it might be!

Date:

Astronomy

Nov. 21, 2013 Rise Set
Actual Time 7:01 AM MST 4:45 PM MST
Civil Twilight 6:31 AM MST 5:15 PM MST
Nautical Twilight 5:58 AM MST 5:48 PM MST
Astronomical Twilight 5:25 AM MST 6:21 PM MST
Moon 8:25 PM MST (11/21) 10:09 AM MST (11/21)
Length of Visible Light 10h 43m
Length of Day
9h 44m
Waning Gibbous, 85% of the Moon is Illuminated
Nov 21
Waning Gibbous
Nov 25
Last Quarter
Dec 2
New
Dec 9
First Quarter
Dec 17
Full

Hourly Weather History & Observations

Time (MST) Temp. Windchill Dew Point Humidity Pressure Visibility Wind Dir Wind Speed Gust Speed Precip Events Conditions
12:14 AM 32.9 °F - 32.2 °F 97% 29.91 in 1.5 mi Calm Calm - N/A   Overcast
12:34 AM 32.4 °F - 32.2 °F 99% 29.91 in 2.5 mi Calm Calm - N/A   Overcast
12:54 AM 32.4 °F - 32.2 °F 99% 29.91 in 2.0 mi Calm Calm - N/A   Overcast
1:14 AM 32.5 °F - 32.4 °F 99% 29.90 in 1.5 mi Calm Calm - N/A   Overcast
1:34 AM 32.2 °F - 32.0 °F 99% 29.91 in 1.5 mi Calm Calm - N/A   Overcast
1:54 AM 32.0 °F - 32.0 °F 100% 29.90 in 1.0 mi Calm Calm - N/A   Overcast
2:14 AM 32.2 °F - 32.2 °F 100% 29.90 in 1.2 mi Calm Calm - N/A   Overcast
2:34 AM 32.2 °F - 32.2 °F 100% 29.90 in 2.0 mi Calm Calm - N/A   Overcast
2:54 AM 32.0 °F - 32.0 °F 100% 29.90 in 2.5 mi Calm Calm - N/A   Overcast
3:14 AM 32.0 °F - 32.0 °F 100% 29.90 in 3.0 mi Calm Calm - N/A   Overcast
3:34 AM 32.0 °F - 32.0 °F 100% 29.89 in 0.8 mi Calm Calm - N/A   Overcast
3:54 AM 32.0 °F - 32.0 °F 100% 29.90 in 0.5 mi Calm Calm - N/A   Overcast
4:14 AM 32.0 °F - 32.0 °F 100% 29.90 in 0.8 mi Calm Calm - N/A   Overcast
4:34 AM 32.0 °F - 32.0 °F 100% 29.90 in 1.2 mi Calm Calm - N/A   Overcast
4:54 AM 32.0 °F - 32.0 °F 100% 29.91 in 2.0 mi Calm Calm - N/A   Overcast
5:14 AM 32.0 °F - 32.0 °F 100% 29.92 in 1.8 mi Calm Calm - N/A   Overcast
5:34 AM 32.0 °F - 32.0 °F 100% 29.91 in 0.5 mi Calm Calm - N/A   Overcast
5:54 AM 32.0 °F 28.7 °F 32.0 °F 100% 29.92 in 4.0 mi SE 3.5 mph - N/A   Overcast
6:14 AM 32.2 °F - 32.2 °F 100% 29.93 in 4.0 mi Calm Calm - N/A   Overcast
6:34 AM 32.0 °F - 32.0 °F 100% 29.94 in 1.5 mi Calm Calm - N/A   Overcast
6:54 AM 32.0 °F 28.7 °F 32.0 °F 100% 29.94 in 4.0 mi SSE 3.5 mph - N/A   Overcast
7:14 AM 32.0 °F - 32.0 °F 100% 29.95 in 2.5 mi Calm Calm - N/A   Overcast
7:34 AM 32.0 °F - 32.0 °F 100% 29.95 in 0.2 mi Calm Calm - N/A   Overcast
7:54 AM 32.2 °F - 32.2 °F 100% 29.96 in 2.0 mi Calm Calm - N/A   Overcast
8:14 AM 32.4 °F - 32.4 °F 100% 29.97 in 0.8 mi Calm Calm - N/A   Overcast
8:34 AM 32.9 °F - 32.9 °F 100% 29.98 in 0.2 mi Calm Calm - N/A   Overcast
8:54 AM 33.3 °F 27.9 °F 33.3 °F 100% 29.98 in 1.0 mi SSW 5.8 mph - N/A   Overcast
9:14 AM 32.0 °F 25.6 °F 31.8 °F 99% 29.99 in 7.0 mi SSW 6.9 mph - N/A   Overcast
9:34 AM 30.2 °F 21.9 °F 29.3 °F 96% 30.00 in 4.0 mi SSW 9.2 mph - N/A   Overcast
9:54 AM 28.8 °F 21.7 °F 27.9 °F 96% 30.02 in 7.0 mi SSW 6.9 mph - N/A   Overcast
10:14 AM 27.5 °F 19.3 °F 26.2 °F 95% 30.02 in 7.0 mi SSW 8.1 mph - N/A   Overcast
10:34 AM 28.4 °F 23.3 °F 26.6 °F 93% 30.03 in 1.2 mi SW 4.6 mph - N/A   Overcast
10:54 AM 27.3 °F 19.9 °F 24.8 °F 90% 30.04 in 4.0 mi SW 6.9 mph - N/A   Overcast
11:14 AM 25.7 °F 19.0 °F 23.7 °F 92% 30.05 in 3.0 mi SW 5.8 mph - N/A   Overcast
11:34 AM 25.2 °F 17.3 °F 23.0 °F 91% 30.05 in 0.5 mi SSW 6.9 mph - N/A   Overcast
11:54 AM 26.1 °F 20.5 °F 23.5 °F 90% 30.05 in 0.5 mi SSW 4.6 mph - N/A   Overcast
12:15 PM 27.0 °F 23.0 °F 21.9 °F 81% 30.06 in 1.5 mi SSW 3.5 mph - N/A   Overcast
12:34 PM 25.7 °F - 20.1 °F 79% - 4.0 mi North - - N/A   Overcast
12:55 PM 24.6 °F 15.8 °F 21.0 °F 86% 30.07 in 1.2 mi WSW 8.1 mph - N/A   Overcast
1:15 PM 23.5 °F 13.0 °F 20.1 °F 87% 30.09 in 2.0 mi SW 10.4 mph 19.6 mph N/A   Overcast
1:35 PM 23.0 °F 14.7 °F 19.6 °F 87% 30.10 in 2.0 mi SW 6.9 mph - N/A   Overcast
1:55 PM 23.4 °F 16.2 °F 18.1 °F 80% 30.10 in 1.5 mi SW 5.8 mph - N/A   Overcast
2:15 PM 22.8 °F 14.5 °F 19.4 °F 87% 30.11 in 1.5 mi SW 6.9 mph - N/A   Overcast
2:35 PM 22.5 °F 11.1 °F 19.6 °F 89% 30.12 in 1.8 mi SW 11.5 mph 16.1 mph N/A   Overcast
2:55 PM 21.9 °F 11.0 °F 19.8 °F 91% 30.14 in 0.5 mi WSW 10.4 mph 16.1 mph N/A   Overcast
3:15 PM 21.2 °F - 19.6 °F 93% 30.16 in 0.2 mi Calm Calm - N/A   Overcast
3:35 PM 21.6 °F - 19.8 °F 93% 30.17 in 1.8 mi Calm Calm - N/A   Overcast
3:55 PM 21.6 °F 15.3 °F 19.0 °F 90% 30.19 in 4.0 mi SW 4.6 mph - N/A   Overcast
4:15 PM 20.8 °F - 18.7 °F 91% 30.21 in 7.0 mi Calm Calm - N/A   Overcast
4:35 PM 20.3 °F - 18.3 °F 92% 30.21 in 10.0 mi Calm Calm - N/A   Overcast
4:55 PM 20.1 °F 15.2 °F 17.4 °F 89% 30.22 in 10.0 mi South 3.5 mph - N/A   Overcast
5:15 PM 19.4 °F - 18.1 °F 95% 30.23 in 7.0 mi Calm Calm - N/A   Overcast
5:35 PM 19.4 °F 11.5 °F 17.6 °F 93% 30.24 in 10.0 mi SSW 5.8 mph - N/A   Overcast
5:55 PM 19.0 °F - 16.9 °F 91% 30.26 in 10.0 mi Calm Calm - N/A   Overcast
6:15 PM 18.5 °F - 15.8 °F 89% 30.27 in 10.0 mi Calm Calm - N/A   Overcast
6:35 PM 18.0 °F - 15.3 °F 89% 30.28 in 10.0 mi Calm Calm - N/A   Overcast
6:55 PM 17.8 °F - 15.1 °F 89% 30.29 in 10.0 mi Calm Calm - N/A   Overcast
7:15 PM 17.6 °F - 14.9 °F 89% 30.29 in 10.0 mi Calm Calm - N/A   Overcast
7:35 PM 17.6 °F - 15.4 °F 91% 30.30 in 10.0 mi Calm Calm - N/A   Overcast
7:55 PM 17.6 °F - 15.3 °F 91% 30.31 in 7.0 mi Calm Calm - N/A   Overcast
8:15 PM 17.1 °F 11.7 °F 14.9 °F 91% 30.32 in 7.0 mi WNW 3.5 mph - N/A   Overcast
8:35 PM 16.5 °F - 14.5 °F 92% 30.33 in 5.0 mi Calm Calm - N/A   Overcast
8:55 PM 15.8 °F 10.2 °F 14.0 °F 93% 30.34 in 10.0 mi NW 3.5 mph - N/A   Overcast
9:15 PM 16.3 °F - 14.2 °F 91% 30.34 in 10.0 mi Calm Calm - N/A   Overcast
9:35 PM 16.2 °F - 14.0 °F 91% 30.34 in 10.0 mi Calm Calm - N/A   Overcast
9:55 PM 15.6 °F - 13.8 °F 93% 30.34 in 10.0 mi Calm Calm - N/A   Mostly Cloudy
10:15 PM 15.3 °F - 13.6 °F 93% 30.35 in 10.0 mi Calm Calm - N/A   Mostly Cloudy
10:35 PM 15.4 °F - 13.8 °F 93% 30.35 in 10.0 mi Calm Calm - N/A   Overcast
10:55 PM 14.9 °F - 13.3 °F 93% 30.35 in 10.0 mi Calm Calm - N/A   Mostly Cloudy
11:15 PM 16.2 °F - 14.0 °F 91% 30.35 in 10.0 mi Calm Calm - N/A   Overcast
11:35 PM 14.5 °F - 12.4 °F 91% 30.36 in 10.0 mi Calm Calm - N/A   Overcast
11:55 PM 14.9 °F - 13.3 °F 93% 30.36 in 10.0 mi Calm Calm - N/A   Overcast